Time,TemperatureF,DewpointF,PressureIn,WindDirection,WindDirectionDegrees,WindSpeedMPH,WindSpeedGustMPH,Humidity,HourlyPrecipIn,Conditions,Clouds,dailyrainin,SoftwareType,DateUTC
2013-05-27 00:13:00,75.3,63.0,30.17,East,84,3.0,12.0,65,0.00,,,0.00,weatherlink.com 1.10,2013-05-27 04:13:00,
2013-05-27 00:29:00,74.9,63.0,30.17,SE,136,3.0,11.0,66,0.00,,,0.00,weatherlink.com 1.10,2013-05-27 04:29:00,
2013-05-27 00:47:00,74.5,63.0,30.18,NE,44,5.0,11.0,67,0.00,,,0.00,weatherlink.com 1.10,2013-05-27 04:47:00,
2013-05-27 01:01:00,74.1,63.0,30.18,East,98,8.0,10.0,68,0.00,,,0.00,weatherlink.com 1.10,2013-05-27 05:01:00,
2013-05-27 01:16:00,73.8,63.0,30.18,ESE,103,2.0,10.0,69,0.00,,,0.00,weatherlink.com 1.10,2013-05-27 05:16:00,
2013-05-27 01:34:00,73.2,63.0,30.17,East,89,3.0,9.0,70,0.00,,,0.00,weatherlink.com 1.10,2013-05-27 05:34:00,
2013-05-27 01:49:00,73.1,63.0,30.17,East,83,7.0,10.0,70,0.00,,,0.00,weatherlink.com 1.10,2013-05-27 05:49:00,
2013-05-27 02:05:00,72.8,63.0,30.17,ESE,105,3.0,10.0,71,0.00,,,0.00,weatherlink.com 1.10,2013-05-27 06:05:00,
2013-05-27 02:21:00,72.4,63.0,30.16,East,94,6.0,7.0,72,0.00,,,0.00,weatherlink.com 1.10,2013-05-27 06:21:00,
2013-05-27 02:36:00,72.2,63.0,30.16,East,97,3.0,7.0,72,0.00,,,0.00,weatherlink.com 1.10,2013-05-27 06:36:00,
2013-05-27 02:53:00,72.1,63.0,30.15,ENE,77,2.0,9.0,73,0.00,,,0.00,weatherlink.com 1.10,2013-05-27 06:53:00,
2013-05-27 03:09:00,71.9,64.0,30.14,East,87,3.0,7.0,75,0.00,,,0.00,weatherlink.com 1.10,2013-05-27 07:09:00,
2013-05-27 03:24:00,71.7,64.0,30.14,East,85,3.0,8.0,76,0.00,,,0.00,weatherlink.com 1.10,2013-05-27 07:24:00,
2013-05-27 03:40:00,71.6,64.0,30.14,East,82,2.0,6.0,77,0.00,,,0.00,weatherlink.com 1.10,2013-05-27 07:40:00,
2013-05-27 03:58:00,71.2,64.0,30.14,East,86,1.0,4.0,78,0.00,,,0.00,weatherlink.com 1.10,2013-05-27 07:58:00,
2013-05-27 04:12:00,70.6,64.0,30.14,East,87,3.0,3.0,79,0.00,,,0.00,weatherlink.com 1.10,2013-05-27 08:12:00,
2013-05-27 04:31:00,70.2,64.0,30.14,East,92,0.0,3.0,81,0.00,,,0.00,weatherlink.com 1.10,2013-05-27 08:31:00,
2013-05-27 04:44:00,70.0,64.0,30.14,East,96,1.0,2.0,81,0.00,,,0.00,weatherlink.com 1.10,2013-05-27 08:44:00,
2013-05-27 05:03:00,69.8,64.0,30.14,ENE,78,2.0,4.0,83,0.00,,,0.00,weatherlink.com 1.10,2013-05-27 09:03:00,
2013-05-27 05:16:00,69.8,64.0,30.14,ENE,71,1.0,4.0,83,0.00,,,0.00,weatherlink.com 1.10,2013-05-27 09:16:00,
2013-05-27 05:34:00,69.9,65.0,30.13,East,94,2.0,5.0,83,0.00,,,0.00,weatherlink.com 1.10,2013-05-27 09:34:00,
2013-05-27 05:49:00,69.7,65.0,30.14,East,92,1.0,3.0,84,0.00,,,0.00,weatherlink.com 1.10,2013-05-27 09:49:00,
2013-05-27 06:07:00,69.4,64.0,30.13,East,92,1.0,3.0,84,0.00,,,0.00,weatherlink.com 1.10,2013-05-27 10:07:00,
2013-05-27 06:20:00,69.3,65.0,30.14,East,96,1.0,2.0,85,0.00,,,0.00,weatherlink.com 1.10,2013-05-27 10:20:00,
2013-05-27 06:37:00,69.1,65.0,30.13,East,84,2.0,5.0,85,0.00,,,0.00,weatherlink.com 1.10,2013-05-27 10:37:00,
2013-05-27 06:53:00,69.5,65.0,30.14,ESE,116,2.0,5.0,84,0.00,,,0.00,weatherlink.com 1.10,2013-05-27 10:53:00,
2013-05-27 07:09:00,69.6,65.0,30.14,East,91,1.0,3.0,84,0.00,,,0.00,weatherlink.com 1.10,2013-05-27 11:09:00,
2013-05-27 07:24:00,69.9,65.0,30.14,ENE,78,1.0,3.0,85,0.00,,,0.00,weatherlink.com 1.10,2013-05-27 11:24:00,
2013-05-27 07:40:00,70.9,66.0,30.15,East,88,2.0,5.0,84,0.00,,,0.00,weatherlink.com 1.10,2013-05-27 11:40:00,
2013-05-27 07:57:00,72.2,66.0,30.15,East,101,2.0,8.0,81,0.00,,,0.00,weatherlink.com 1.10,2013-05-27 11:57:00,
2013-05-27 08:16:00,73.3,66.0,30.16,East,96,0.0,8.0,77,0.00,,,0.00,weatherlink.com 1.10,2013-05-27 12:16:00,
2013-05-27 08:30:00,74.2,66.0,30.16,SE,140,5.0,7.0,75,0.00,,,0.00,weatherlink.com 1.10,2013-05-27 12:30:00,
2013-05-27 08:45:00,75.2,66.0,30.16,ESE,107,7.0,8.0,72,0.00,,,0.00,weatherlink.com 1.10,2013-05-27 12:45:00,
2013-05-27 09:00:00,75.3,65.0,30.16,SE,138,6.0,11.0,70,0.00,,,0.00,weatherlink.com 1.10,2013-05-27 13:00:00,
2013-05-27 09:16:00,76.4,66.0,30.15,SE,135,5.0,13.0,69,0.00,,,0.00,weatherlink.com 1.10,2013-05-27 13:16:00,
2013-05-27 09:33:00,77.1,64.0,30.16,East,86,3.0,14.0,65,0.00,,,0.00,weatherlink.com 1.10,2013-05-27 13:33:00,
2013-05-27 09:48:00,77.0,64.0,30.16,SE,143,7.0,13.0,64,0.00,,,0.00,weatherlink.com 1.10,2013-05-27 13:48:00,
2013-05-27 10:04:00,78.0,63.0,30.16,East,96,8.0,14.0,61,0.00,,,0.00,weatherlink.com 1.10,2013-05-27 14:04:00,
2013-05-27 10:19:00,78.0,63.0,30.16,SE,124,8.0,12.0,60,0.00,,,0.00,weatherlink.com 1.10,2013-05-27 14:19:00,
2013-05-27 10:36:00,79.3,63.0,30.16,East,90,7.0,12.0,58,0.00,,,0.00,weatherlink.com 1.10,2013-05-27 14:36:00,
2013-05-27 10:55:00,81.0,63.0,30.16,NNE,16,3.0,14.0,55,0.00,,,0.00,weatherlink.com 1.10,2013-05-27 14:55:00,
2013-05-27 11:07:00,80.1,62.0,30.16,NE,47,5.0,11.0,54,0.00,,,0.00,weatherlink.com 1.10,2013-05-27 15:07:00,
2013-05-27 11:24:00,80.9,63.0,30.16,SE,136,7.0,13.0,54,0.00,,,0.00,weatherlink.com 1.10,2013-05-27 15:24:00,
2013-05-27 11:39:00,81.5,63.0,30.16,East,90,5.0,11.0,54,0.00,,,0.00,weatherlink.com 1.10,2013-05-27 15:39:00,
2013-05-27 11:55:00,82.1,63.0,30.16,SE,139,10.0,10.0,53,0.00,,,0.00,weatherlink.com 1.10,2013-05-27 15:55:00,
2013-05-27 12:12:00,83.3,63.0,30.16,ENE,76,11.0,13.0,51,0.00,,,0.00,weatherlink.com 1.10,2013-05-27 16:12:00,
2013-05-27 12:27:00,83.6,65.0,30.16,East,96,10.0,17.0,53,0.00,,,0.00,weatherlink.com 1.10,2013-05-27 16:27:00,
2013-05-27 12:44:00,83.7,64.0,30.16,ENE,61,3.0,12.0,52,0.00,,,0.00,weatherlink.com 1.10,2013-05-27 16:44:00,
2013-05-27 13:00:00,84.9,63.0,30.16,South,180,4.0,8.0,48,0.00,,,0.00,weatherlink.com 1.10,2013-05-27 17:00:00,
2013-05-27 13:16:00,86.7,63.0,30.16,East,88,6.0,11.0,45,0.00,,,0.00,weatherlink.com 1.10,2013-05-27 17:16:00,
2013-05-27 13:32:00,85.4,62.0,30.15,SE,125,5.0,13.0,46,0.00,,,0.00,weatherlink.com 1.10,2013-05-27 17:32:00,
2013-05-27 13:47:00,85.7,63.0,30.15,ESE,103,9.0,13.0,46,0.00,,,0.00,weatherlink.com 1.10,2013-05-27 17:47:00,
2013-05-27 14:03:00,87.0,62.0,30.14,North,355,2.0,13.0,43,0.00,,,0.00,weatherlink.com 1.10,2013-05-27 18:03:00,
2013-05-27 14:21:00,87.5,62.0,30.13,North,11,3.0,11.0,43,0.00,,,0.00,weatherlink.com 1.10,2013-05-27 18:21:00,
2013-05-27 14:37:00,87.1,62.0,30.13,East,88,8.0,9.0,43,0.00,,,0.00,weatherlink.com 1.10,2013-05-27 18:37:00,
2013-05-27 14:54:00,87.9,61.0,30.12,SE,140,6.0,10.0,41,0.00,,,0.00,weatherlink.com 1.10,2013-05-27 18:54:00,
2013-05-27 15:09:00,86.9,61.0,30.11,SE,136,5.0,10.0,42,0.00,,,0.00,weatherlink.com 1.10,2013-05-27 19:09:00,
2013-05-27 15:25:00,88.3,62.0,30.11,ESE,105,4.0,10.0,41,0.00,,,0.00,weatherlink.com 1.10,2013-05-27 19:25:00,
2013-05-27 15:40:00,88.4,62.0,30.10,East,96,7.0,10.0,41,0.00,,,0.00,weatherlink.com 1.10,2013-05-27 19:40:00,
2013-05-27 15:59:00,90.6,61.0,30.09,ENE,76,10.0,13.0,37,0.00,,,0.00,weatherlink.com 1.10,2013-05-27 19:59:00,
2013-05-27 16:13:00,88.4,60.0,30.09,SE,128,5.0,10.0,39,0.00,,,0.00,weatherlink.com 1.10,2013-05-27 20:13:00,
2013-05-27 16:28:00,87.5,61.0,30.08,ESE,103,5.0,9.0,41,0.00,,,0.00,weatherlink.com 1.10,2013-05-27 20:28:00,
2013-05-27 16:44:00,88.9,61.0,30.08,ESE,109,7.0,9.0,39,0.00,,,0.00,weatherlink.com 1.10,2013-05-27 20:44:00,
2013-05-27 17:01:00,90.0,61.0,30.07,ENE,73,7.0,8.0,38,0.00,,,0.00,weatherlink.com 1.10,2013-05-27 21:01:00,
2013-05-27 17:18:00,89.7,61.0,30.07,ENE,78,1.0,10.0,38,0.00,,,0.00,weatherlink.com 1.10,2013-05-27 21:18:00,
2013-05-27 17:32:00,90.2,61.0,30.07,East,81,5.0,12.0,37,0.00,,,0.00,weatherlink.com 1.10,2013-05-27 21:32:00,
2013-05-27 17:49:00,90.3,61.0,30.06,NE,51,6.0,9.0,38,0.00,,,0.00,weatherlink.com 1.10,2013-05-27 21:49:00,
2013-05-27 18:04:00,89.0,62.0,30.06,East,90,10.0,12.0,40,0.00,,,0.00,weatherlink.com 1.10,2013-05-27 22:04:00,
2013-05-27 18:21:00,88.9,62.0,30.05,ENE,77,5.0,11.0,40,0.00,,,0.00,weatherlink.com 1.10,2013-05-27 22:21:00,
2013-05-27 18:37:00,88.2,61.0,30.05,East,80,6.0,13.0,40,0.00,,,0.00,weatherlink.com 1.10,2013-05-27 22:37:00,
2013-05-27 18:54:00,85.0,67.0,30.05,NNE,23,2.0,6.0,55,0.00,,,0.00,weatherlink.com 1.10,2013-05-27 22:54:00,
2013-05-27 19:08:00,84.8,67.0,30.05,NNE,30,4.0,6.0,55,0.00,,,0.00,weatherlink.com 1.10,2013-05-27 23:08:00,
2013-05-27 19:25:00,83.2,67.0,30.05,NNE,15,3.0,7.0,58,0.00,,,0.00,weatherlink.com 1.10,2013-05-27 23:25:00,
2013-05-27 19:40:00,82.6,68.0,30.05,NNE,12,1.0,7.0,61,0.00,,,0.00,weatherlink.com 1.10,2013-05-27 23:40:00,
2013-05-27 19:55:00,81.9,68.0,30.05,NNE,16,1.0,8.0,63,0.00,,,0.00,weatherlink.com 1.10,2013-05-27 23:55:00,
2013-05-27 20:12:00,82.2,67.0,30.05,North,5,1.0,3.0,61,0.00,,,0.00,weatherlink.com 1.10,2013-05-28 00:12:00,
2013-05-27 20:28:00,82.1,66.0,30.05,ENE,65,2.0,4.0,59,0.00,,,0.00,weatherlink.com 1.10,2013-05-28 00:28:00,
2013-05-27 20:44:00,83.0,64.0,30.05,NNE,30,7.0,11.0,53,0.00,,,0.00,weatherlink.com 1.10,2013-05-28 00:44:00,
2013-05-27 21:00:00,82.7,64.0,30.06,East,80,8.0,10.0,54,0.00,,,0.00,weatherlink.com 1.10,2013-05-28 01:00:00,
2013-05-27 21:16:00,82.7,64.0,30.07,ENE,76,3.0,10.0,53,0.00,,,0.00,weatherlink.com 1.10,2013-05-28 01:16:00,
2013-05-27 21:33:00,82.1,64.0,30.08,ENE,66,8.0,14.0,54,0.00,,,0.00,weatherlink.com 1.10,2013-05-28 01:33:00,
2013-05-27 21:48:00,81.4,64.0,30.09,East,87,3.0,13.0,56,0.00,,,0.00,weatherlink.com 1.10,2013-05-28 01:48:00,
2013-05-27 22:04:00,81.1,64.0,30.09,ENE,75,11.0,15.0,57,0.00,,,0.00,weatherlink.com 1.10,2013-05-28 02:04:00,
2013-05-27 22:19:00,80.8,65.0,30.10,East,98,5.0,16.0,59,0.00,,,0.00,weatherlink.com 1.10,2013-05-28 02:19:00,
2013-05-27 22:36:00,79.7,65.0,30.10,ESE,104,5.0,15.0,61,0.00,,,0.00,weatherlink.com 1.10,2013-05-28 02:36:00,
2013-05-27 22:55:00,78.8,66.0,30.11,ESE,119,9.0,19.0,64,0.00,,,0.00,weatherlink.com 1.10,2013-05-28 02:55:00,
2013-05-27 23:07:00,78.2,66.0,30.11,East,97,11.0,14.0,66,0.00,,,0.00,weatherlink.com 1.10,2013-05-28 03:07:00,
2013-05-27 23:24:00,78.0,67.0,30.12,East,89,3.0,17.0,68,0.00,,,0.00,weatherlink.com 1.10,2013-05-28 03:24:00,
2013-05-27 23:39:00,77.2,67.0,30.12,East,82,9.0,18.0,70,0.00,,,0.00,weatherlink.com 1.10,2013-05-28 03:39:00,
2013-05-27 23:55:00,76.6,67.0,30.13,ESE,112,8.0,15.0,72,0.00,,,0.00,weatherlink.com 1.10,2013-05-28 03:55:00,